Location: Ciserano
(45.5833°N, 9.6000°E)
Time: 16:49:47
(UTC+00:00)

FENGYUN 1C DEB - Visible Passes

Search period start: 24 June 2021 00:00
Search period end: 04 July 2021 00:00
Orbit: 607 x 793 km, 99.9° (Epoch: 23 June)

Date Brightness Start Highest point End Pass type
(mag) Time Alt. Az. Time Alt. Az. Time Alt. Az.
24 Jun ? 20:11:04 10° N 20:14:41 28° WNW 20:18:19 10° WSW visible
25 Jun ? 20:54:31 10° NNW 20:56:13 12° WNW 20:57:57 10° W visible
26 Jun ? 19:57:11 10° N 20:01:08 39° WNW 20:05:07 10° SW visible
27 Jun ? 20:40:02 10° NNW 20:42:46 17° WNW 20:45:29 10° W visible
29 Jun ? 20:25:54 10° N 20:29:15 23° WNW 20:32:38 10° WSW visible
01 Jul ? 20:11:54 10° N 20:15:41 31° WNW 20:19:32 10° SW visible
02 Jul ? 20:55:04 10° NNW 20:57:16 14° WNW 20:59:28 10° W visible
03 Jul ? 19:58:00 10° N 20:02:05 44° WNW 20:06:17 10° SW visible
